#timestamp,LO_Frequency,Hit,StdDev 
1458205215.2,286047004.1,N
1458205235.9,286047004.4,N
1458205255.7,286047004.0,N
1458205275.6,286047001.7,N
1458205295.4,286047003.4,N
1458205315.2,286047001.5,N
1458205335.1,286047002.1,N
1458205336.0,286047002.1,N
1458205355.8,286047000.2,N
1458205375.6,286046998.2,N
1458205395.4,286046996.5,N
1458205415.3,286047000.4,N
1458205435.1,286047002.5,N
1458205455.8,286047001.5,N
1458205475.7,286047004.3,N
1458205495.5,286047001.7,N
1458205515.3,286047005.6,N
1458205535.2,286047003.9,N
1458205555.9,286047005.3,N
1458205575.7,286047003.5,N
1458205595.6,286047003.4,N
1458205615.4,286047001.3,N
1458205635.2,286047000.6,N
1458205655.1,286047000.4,N
1458205656.0,286047000.4,N
1458205675.8,286046996.8,N
1458205695.6,286046993.7,N
1458205715.5,286046999.3,N
1458205735.3,286047000.4,N
1458205755.1,286047002.8,N
1458205775.8,286047006.0,N
1458205795.7,286047004.1,N
1458205815.5,286046999.7,N
1458205835.3,286046999.7,N
1458205855.2,286047001.3,N
1458205875.9,286047003.7,N
1458205895.7,286047005.9,N
1458205915.6,286047007.2,N
1458205935.4,286047007.6,N
1458205955.2,286047004.7,N
1458205975.1,286047006.2,N
1458205976.0,286047006.2,N
1458205995.8,286047008.0,N
1458206015.6,286047008.0,N
1458206035.5,286047010.2,Y
1458206055.3,286047006.2,P
1458206075.1,286047006.9,P
1458206095.9,286047009.1,P
1458206115.7,286047006.3,N
1458206135.5,286047007.9,Y
1458206155.4,286047000.1,P
1458206175.2,286047001.5,N
1458206195.0,286046999.7,N
1458206195.9,286046999.7,N
1458206215.8,286047001.3,N
1458206235.6,286047004.3,N
1458206255.4,286047001.3,N
1458206275.2,286047003.8,N
1458206295.1,286047003.2,N
1458206296.0,286047003.2,N
1458206315.8,286047005.9,N
1458206335.6,286047005.8,N
1458206355.5,286047005.5,N
1458206375.3,286047007.6,Y
1458206395.1,286047002.7,P
1458206415.9,286047001.5,P
1458206435.7,286047001.9,N
1458206455.5,286047000.4,N
1458206475.4,286047001.9,N
1458206495.2,286046999.8,N
1458206515.0,286046998.2,N
1458206515.9,286046998.2,N
1458206535.8,286046997.6,N
1458206555.6,286046999.0,N
1458206575.4,286046996.4,N
1458206595.3,286046990.1,Y
1458206615.1,286046990.2,P
1458206616.0,286046990.2,N
1458206635.8,286046988.6,N
1458206655.7,286046991.4,N
1458206675.5,286046987.3,Y
1458206695.3,286046996.6,P
1458206715.2,286046996.8,N
1458206735.9,286046999.1,N
1458206755.7,286046995.7,N
1458206775.6,286046995.4,N
1458206795.4,286046996.0,N
1458206815.2,286046993.5,Y
1458206835.1,286046997.6,P
1458206836.0,286046997.6,N
1458206855.8,286046998.5,N
1458206875.6,286046998.3,N
1458206895.4,286046998.7,N
1458206915.3,286047001.3,N
1458206935.1,286047004.0,N
1458206955.8,286047002.5,N
1458206975.7,286047002.5,N
1458206995.5,286047001.5,N
1458207015.3,286047003.8,N
1458207035.2,286047005.1,N
1458207055.9,286047007.3,N
1458207075.7,286047007.3,N
1458207095.6,286047009.1,N
1458207115.4,286047007.3,N
1458207135.2,286047007.1,N
1458207155.1,286047006.4,N
1458207156.0,286047006.4,N
1458207175.8,286047009.8,N
1458207195.6,286047008.3,N
1458207215.4,286047009.2,N
1458207235.3,286047007.0,N
1458207255.1,286047010.8,N
1458207275.8,286047007.0,N
1458207295.7,286047007.1,N
1458207315.5,286047007.4,N
1458207335.3,286047008.4,N
1458207355.2,286047011.5,N
1458207375.9,286047012.4,N
1458207395.7,286047011.6,N
1458207415.6,286047009.3,N
1458207435.4,286047008.1,N
1458207455.2,286047009.3,N
1458207475.1,286047008.5,N
1458207476.0,286047008.5,N
1458207495.8,286047012.4,Y
1458207515.6,286047004.1,P
1458207535.5,286047002.4,N
1458207555.3,286046998.2,N
1458207575.1,286047002.4,N
1458207595.9,286047000.1,N
1458207615.7,286047000.9,N
1458207635.5,286046999.1,N
1458207655.4,286046995.7,N
1458207675.2,286046997.0,N
1458207695.0,286046997.2,N
1458207695.9,286046997.2,N
1458207715.7,286046997.6,N
1458207735.6,286046996.5,N
1458207755.4,286046999.7,N
1458207775.2,286047001.1,N
1458207795.1,286047001.0,N
1458207796.0,286047001.0,N
1458207815.8,286047002.5,N
1458207835.6,286046999.3,N
1458207855.5,286046993.4,N
1458207875.3,286046993.0,N
1458207895.1,286046995.5,N
1458207915.9,286046997.7,N
1458207935.7,286046997.4,N
1458207955.5,286046997.6,N
1458207975.4,286046995.3,N
1458207995.2,286046991.8,N
1458208015.0,286046994.1,N
1458208015.9,286046994.1,N
1458208035.7,286046993.9,N
1458208055.6,286046991.9,N
1458208075.4,286046994.0,N
1458208095.3,286046990.8,Y
1458208115.1,286046992.2,P
1458208116.0,286046992.2,P
1458208135.8,286046992.7,P
1458208155.7,286046992.7,Y
1458208175.5,286047002.3,P
1458208195.3,286046998.6,N
1458208215.1,286046995.0,N
1458208235.9,286046996.7,N
1458208255.7,286046995.6,N
1458208275.5,286046996.1,N
1458208295.4,286046994.5,N
1458208315.2,286046994.8,N
1458208335.0,286046991.2,Y
1458208335.9,286046991.2,P
1458208355.8,286046996.2,N
1458208375.6,286046997.9,N
1458208395.4,286046996.8,N
1458208415.3,286046995.0,N
1458208435.1,286046996.1,N
1458208455.8,286046994.9,N
1458208475.7,286046995.6,N
1458208495.5,286046993.5,Y
1458208515.3,286047002.8,P
1458208535.2,286047001.1,N
1458208555.9,286047000.4,N
1458208575.7,286046998.4,N
1458208595.6,286047000.2,N
1458208615.4,286047001.0,N
1458208635.2,286046999.8,N
1458208655.1,286047003.9,N
1458208656.0,286047003.9,N
1458208675.8,286047004.1,N
1458208695.6,286047004.3,N
1458208715.4,286047001.7,N
1458208735.3,286047003.5,N
1458208755.1,286047000.1,N
1458208775.8,286047001.9,N
1458208795.7,286047001.3,N
